Location: Penton Mewsey
(51.2167°N, 1.5167°W)
Time: 09:22:21
(UTC+00:00)

Cosmos 1943 Rocket - Pass Details

Date: 30 March 2020
Orbit: 812 x 844 km, 71.0° (Epoch: 23 May)

Event Time Altitude Azimuth Distance (km) Brightness Sun altitude
Rises 19:51:57 0° 330° (NNW) 3,351 6.2 -12.2°
Reaches altitude 10° 19:54:23 10° 331° (NNW) 2,419 5.4 -12.5°
Maximum altitude 19:59:56 80° 59° (ENE) 840 2.1 -13.3°
Enters shadow 20:04:32 16° 146° (SE) 2,058 3.7 -14.0°
